Regional Weather Roundup
Issued by NWS Boston, MA

Home | Current Version | Previous Version | Text Only | Print | Product List | Glossary On
Versions: 1 2 3 4 5 6 7 8 9 10 11 12 13 14 15 16 17 18 19 20 21 22 23 24 25 26 27 28 29 30 31 32 33 34 35 36 37 38 39 40 41 42 43 44 45 46 47
000
ASUS41 KBOX 012110
RWRBOX

REGIONAL WEATHER ROUNDUP
NATIONAL WEATHER SERVICE TAUNTON MA
500 PM EDT WED OCT 01 2014

NOTE:  "FAIR" INDICATES FEW OR NO CLOUDS BELOW 12,000 FEET WITH NO
SIGNIFICANT WEATHER AND/OR OBSTRUCTIONS TO VISIBILITY.  THE FOLLOWING
OBSERVATION LOCATIONS DO NOT REPORT PRESENT WEATHER...PROVINCETOWN...
SMITHFIELD...BLOCK ISLAND...KEENE...AND OXFORD.

MAZALL-012200-
EASTERN MASSACHUSETTS

CITY           SKY/WX    TMP DP  RH WIND       PRES   REMARKS
BOSTON         LGT RAIN  56  55  97 NE14      30.07R FOG
BEVERLY        LGT RAIN  56  54  93 NE9G22    30.06S
LAWRENCE       CLOUDY    57  55  93 NE12G21   30.10R
BEDFORD        CLOUDY    56  55  97 NE13      30.07R
BLUE HILL        N/A     54  54 100 NE13G26   30.04S
NORWOOD        CLOUDY    57  55  93 NE10G20   30.05S
MARSHFIELD     NOT AVBL
PLYMOUTH       RAIN      58  58 100 NE14G28   30.02S FOG
TAUNTON        LGT RAIN  59  57  93 VRB6      30.03S
NEW BEDFORD    LGT RAIN  60  58  92 NE10      30.02R
$$

MAZALL-012200-
CAPE COD AND THE ISLANDS

CITY           SKY/WX    TMP DP  RH WIND       PRES   REMARKS
FALMOUTH       LGT RAIN  59  59 100 NE15      30.02R
HYANNIS        HVY RAIN  61  59  93 N15G23    30.01R FOG
CHATHAM        RAIN      60  59  96 NE8       30.03R FOG
PROVINCETOWN   CLOUDY    61  57  88 NE15      30.05R
NANTUCKET      LGT RAIN  61  60  97 NE17      29.98R FOG
MARTHAS VNYRD  LGT RAIN  60  59  96 NE16G24   30.00R
$$

MAZALL-012200-
CENTRAL AND WESTERN MASSACHUSETTS

CITY           SKY/WX    TMP DP  RH WIND       PRES   REMARKS
WORCESTER      CLOUDY    54  53  97 NE10G21   30.08S FOG
FITCHBURG      LGT RAIN  58  54  86 NE7       30.09S
ORANGE         CLOUDY    58  55  90 N8        30.08S
SPRINGFIELD    CLOUDY    60  56  86 N6        30.06S
WESTFIELD      CLOUDY    60  57  89 N8        30.06F
NORTH ADAMS    CLOUDY    60  57  89 CALM      30.08S
PITTSFIELD     CLOUDY    58  57  97 CALM      30.07S
$$

RIZALL-012200-
RHODE ISLAND

CITY           SKY/WX    TMP DP  RH WIND       PRES   REMARKS
PROVIDENCE     LGT RAIN  58  56  93 N14       30.04R
NEWPORT        CLOUDY    61  57  87 NE13G21   30.02R
BLOCK ISLAND   CLOUDY    61  55  82 N13       30.01R
SMITHFIELD     CLOUDY    55  50  82 NE13G20   30.04S
WESTERLY       CLOUDY    60  57  89 N8        30.03R
$$

CTZALL-012200-
CONNECTICUT

CITY           SKY/WX    TMP DP  RH WIND       PRES   REMARKS
BRADLEY INTL   CLOUDY    61  57  87 N8        30.05S
HARTFORD       CLOUDY    61  56  83 N10G17    30.05S
BRIDGEPORT     CLOUDY    64  59  83 NE12      30.03S
DANBURY        CLOUDY    62  56  80 N8        30.06S
GROTON         CLOUDY    59  58  96 N7        30.02R
NEW HAVEN      CLOUDY    65  59  81 N10       30.03S
CHESTER        NOT AVBL
MERIDEN        LGT RAIN  61  58  90 N8        30.04S
WILLIMANTIC    CLOUDY    59  55  87 N10       30.05S
OXFORD         CLOUDY    59  54  82 NE12      30.07R
$$

MEZ002-015-021-024-NHZ003-005-008-011-012-014-VTZ005-008-012200-
NORTHERN NEW ENGLAND

CITY           SKY/WX    TMP DP  RH WIND       PRES   REMARKS
PORTLAND ME    CLOUDY    59  54  83 NE7       30.11S
BANGOR ME      CLOUDY    58  50  75 N9        30.15S
CONCORD NH     LGT RAIN  57  55  93 CALM      30.10R
MANCHESTER NH  LGT RAIN  58  54  86 N7        30.08S
NASHUA NH      CLOUDY    58  56  93 VRB6      30.09S
PORTSMOUTH NH  LGT RAIN  57  55  93 N7        30.09R
JAFFREY NH     CLOUDY    55  54  96 CALM      30.11R
KEENE NH       CLOUDY    59  50  72 CALM      30.10R
BURLINGTON VT  PTSUNNY   59  53  80 N6        30.12F
MT. WASHINGTON CLOUDY    50  41  71 SE2         N/A
$$

NYZ052-076-012200-
EASTERN NEW YORK

CITY           SKY/WX    TMP DP  RH WIND       PRES   REMARKS
ALBANY         CLOUDY    63  56  78 N5        30.07F
NEW YORK CITY  CLOUDY    63  59  87 NE8       30.03S
$$

ANZALL-012200-
MARINE OBSERVATIONS

STATION/POSITION TIME  TEMP    WIND        PRES    VSBY  WAVE
                       AIR SEA DIR/SP/G                  HT/PER
                 (UTC) (F)     (DEG/KT/KT) (MB)    (MI)  (FT/S)
BOSTON BUOY      2050   58 60   50/ 19/ 21 1017.4R         6/ 7
BUZZARDS BAY     2000           30/ 28/ 29 1015.6F
NANTUCKET SOUND  2050   62 66   30/ 19/ 21 1015.3R         3/ 4
MASS BAY-STELLWA NOT AVBL
ISLE OF SHOALS   2000   57      40/ 19/ 22 1017.9F
S OF BLOCK IS    2008      67                N/A           5/ 6
$$

......................KEY.........................
  SKY/WX - SKY CONDITION/PRESENT WEATHER
  TMP    - TEMPERATURE IN FAHRENHEIT
  DWPT   - DEWPOINT IN FAHRENHEIT
  RH     - RELATIVE HUMIDITY IN PERCENT
  WIND   - DIRECTION AND SPEED IN MPH
  PRES   - MEAN SEA LEVEL PRESSURE IN INCHES OF HG
  WCI    - WIND CHILL INDEX
  VSB    - VISIBILITY IN MILES
  HX     - HEAT INDEX
  TC     - TEMPERATURE IN CELSIUS
  VRB    - VARIABLE WIND DIRECTION
  N/A    - NOT AVAILABLE



USA.gov is the U.S. government's official web portal to all federal, state and local government web resources and services.